Weather History for Lihue, HI

Change the Weather History Date:

Saturday, December 29, 2012

  Actual Average Record
Temperature  
Mean Temperature 72 °F 72 °F  
Max Temperature 78 °F 78 °F 85 °F (1981)
Min Temperature 66 °F 66 °F 56 °F (1953)
Degree Days  
Heating Degree Days 0 0  
Month to date heating degree days 0 0  
Since 1 July heating degree days 0 0  
Cooling Degree Days 7 7  
Month to date cooling degree days 271 239  
Year to date cooling degree days 4112 3930  
Growing Degree Days 21 (Base 50)    
Moisture  
Dew Point 64 °F    
Average Humidity 74    
Maximum Humidity 87    
Minimum Humidity 60    
Precipitation  
Precipitation 0.00 in 0.16 in 1.36 in (1992)
Month to date precipitation 4.24 4.91  
Year to date precipitation 41.05 36.76  
Snow  
Snow 0.00 in - - ()
Month to date snowfall 0.0  
Since 1 July snowfall 0.0  
Snow Depth 0.00 in    
Sea Level Pressure  
Sea Level Pressure 30.00 in    
Wind  
Wind Speed 5 mph (NW)    
Max Wind Speed 10 mph    
Max Gust Speed 13 mph    
Visibility 10 miles    
Events      
T = Trace of Precipitation, MM = Missing Value Source: NWS Daily Summary

Daily Weather History Graph

Daily Weather History Graph

Search for Another Location

Airport:

Trip Planner

Search our weather history database for the weather conditions in past years. The results will help you decide how hot, cold, wet, or windy it might be!

Date:

Astronomy

Dec. 29, 2012 Rise Set
Actual Time 7:15 AM HST 6:04 PM HST
Civil Twilight 6:51 AM HST 6:28 PM HST
Nautical Twilight 6:23 AM HST 6:56 PM HST
Astronomical Twilight 5:55 AM HST 7:23 PM HST
Moon 7:34 PM HST (12/29) 8:07 AM HST (12/29)
Length of Visible Light 11h 37m
Length of Day
10h 48m
Full, 98% of the Moon is Illuminated
Dec 29
Full
Jan 4
Last Quarter
Jan 11
New
Jan 18
First Quarter
Jan 26
Full

Hourly Weather History & Observations

Time (HST) Temp. Dew Point Humidity Pressure Visibility Wind Dir Wind Speed Gust Speed Precip Events Conditions
12:14 AM 68.0 °F 64.4 °F 88% 30.01 in 10.0 mi West 4.6 mph - N/A   Scattered Clouds
12:25 AM 68.0 °F 64.4 °F 88% 30.01 in 10.0 mi West 5.8 mph - N/A   Mostly Cloudy
12:53 AM 69.1 °F 64.0 °F 84% 30.01 in 10.0 mi West 5.8 mph - N/A   Mostly Cloudy
1:03 AM 68.0 °F 64.4 °F 88% 30.01 in 10.0 mi WNW 3.5 mph - N/A   Scattered Clouds
1:53 AM 66.9 °F 62.1 °F 84% 29.99 in 10.0 mi West 4.6 mph - N/A   Clear
2:53 AM 66.9 °F 63.0 °F 87% 29.99 in 10.0 mi West 6.9 mph - N/A   Clear
3:53 AM 66.0 °F 62.1 °F 87% 29.99 in 10.0 mi SW 5.8 mph - N/A   Clear
4:53 AM 68.0 °F 63.0 °F 84% 29.98 in 10.0 mi West 5.8 mph - N/A   Overcast
5:53 AM 68.0 °F 63.0 °F 84% 29.99 in 10.0 mi West 6.9 mph - N/A   Overcast
6:53 AM 68.0 °F 63.0 °F 84% 30.01 in 10.0 mi West 6.9 mph - N/A   Mostly Cloudy
7:53 AM 69.1 °F 64.0 °F 84% 30.03 in 10.0 mi WNW 5.8 mph - N/A   Overcast
8:53 AM 72.0 °F 64.9 °F 78% 30.04 in 10.0 mi West 5.8 mph - N/A   Overcast
9:53 AM 75.0 °F 66.9 °F 76% 30.06 in 10.0 mi Calm Calm - N/A   Overcast
10:53 AM 75.0 °F 66.0 °F 73% 30.05 in 10.0 mi NE 3.5 mph - N/A   Overcast
11:53 AM 77.0 °F 66.0 °F 69% 30.02 in 10.0 mi East 8.1 mph - N/A   Scattered Clouds
12:53 PM 77.0 °F 66.0 °F 69% 29.99 in 10.0 mi East 6.9 mph - N/A   Clear
1:53 PM 78.1 °F 64.9 °F 64% 29.96 in 10.0 mi East 5.8 mph - N/A   Clear
2:53 PM 77.0 °F 62.1 °F 60% 29.94 in 10.0 mi East 8.1 mph - N/A   Clear
3:53 PM 77.0 °F 64.0 °F 64% 29.95 in 10.0 mi ENE 8.1 mph - N/A   Clear
4:53 PM 75.9 °F 63.0 °F 64% 29.96 in 10.0 mi ENE 8.1 mph - N/A   Clear
5:53 PM 73.9 °F 63.0 °F 68% 29.96 in 10.0 mi ENE 6.9 mph - N/A   Clear
6:53 PM 73.0 °F 64.9 °F 76% 29.98 in 10.0 mi NNE 6.9 mph - N/A   Clear
7:53 PM 72.0 °F 64.9 °F 78% 29.99 in 10.0 mi NE 5.8 mph - N/A   Scattered Clouds
8:27 PM 69.8 °F 64.4 °F 83% 30.01 in 10.0 mi WNW 4.6 mph - N/A   Mostly Cloudy
8:53 PM 69.1 °F 64.0 °F 84% 30.01 in 10.0 mi WNW 4.6 mph - N/A   Scattered Clouds
9:03 PM 69.8 °F 64.4 °F 83% 30.01 in 10.0 mi WNW 4.6 mph - N/A   Mostly Cloudy
9:53 PM 69.1 °F 64.0 °F 84% 30.01 in 10.0 mi West 3.5 mph - N/A   Overcast
10:53 PM 70.0 °F 64.9 °F 84% 30.01 in 10.0 mi Calm Calm - N/A   Mostly Cloudy
11:27 PM 71.6 °F 66.2 °F 83% 30.01 in 10.0 mi East 6.9 mph - N/A   Scattered Clouds
11:53 PM 69.1 °F 64.0 °F 84% 30.00 in 10.0 mi Calm Calm - N/A   Scattered Clouds